Tracking 31027 objects as of 19-Jul-2025
HD Live streaming from Space Station
objects crossing your sky now

STARLINK-30242

Track STARLINK-30242 now!
10-day predictions
STARLINK-30242 is classified as:


NORAD ID: 57739
Int'l Code: 2023-131H
Perigee: 565.2 km
Apogee: 567.2 km
Inclination: 43.0 °
Period: 95.8 minutes
Semi major axis: 6937 km
RCS: Unknown
Launch date: September 1, 2023
Source: United States (US)
Launch site: AIR FORCE EASTERN TEST RANGE (AFETR)
Your satellite tracking list
FENGYUN 1C DEB
Track 1 satellite(s)




NASA's NSSDC Master Catalog

Two Line Element Set (TLE):
1 57739U 23131H   25199.64744160  .00000054  00000-0  19045-4 0  9991
2 57739  43.0068 338.1496 0001450 269.9829  90.0847 15.02534256105011
Source of the keplerian elements: AFSPC